Preview of NWS' New Version of Forecast
This preview is not operational and should not be used for support decisions.

Regional Weather Roundup (RWR)

Issued by National Weather Service (NWS)

                            
000
ASUS45 KBOU 171510
RWRCO 

WEATHER ROUNDUP FOR COLORADO
NATIONAL WEATHER SERVICE DENVER/BOULDER CO
900 AM MDT WED APR 17 2019

NOTE: "FAIR" INDICATES FEW OR NO CLOUDS BELOW 12000 FEET WITH NO
SIGNIFICANT WEATHER AND/OR OBSTRUCTIONS TO VISIBILITY.

COZ001>005-013-030-031-171600-
...NORTHWEST COLORADO...
  
CITY           SKY/WX    TMP DP  RH WIND       PRES   REMARKS
CRAIG          CLOUDY    41  33  73 W9        30.08R                  
HAYDEN         CLOUDY    39  31  72 W13       30.09R                  
MEEKER         CLOUDY    39  32  76 CALM      30.09R                  
RANGELY        FAIR      47  32  56 E9        30.09R                  
RABBIT EARS PA SNOW      27  27 100 W7        30.09S VSB<1/4 WCI  19  
STEAMBOAT SPGS CLOUDY    36  34  93 S3        30.08R                  
WALDEN         PTSUNNY   37  30  75 SE5       30.06F                  
$$

COZ006>008-011-171600-
...WEST CENTRAL VALLEYS...
  
CITY           SKY/WX    TMP DP  RH WIND       PRES   REMARKS
GRAND JUNCTION CLOUDY    49  41  74 W5        30.02R                  
MONTROSE       CLOUDY    46  37  71 W12       30.05R                  
EAGLE          LGT RAIN  39  35  86 SE3       30.08R                  
RIFLE          CLOUDY    49  31  49 W8        30.03R                  
DELTA          CLOUDY    51  37  59 E3        30.02R                  
NUCLA          CLOUDY    45  36  70 NW5       30.05R                  
$$

COZ017>023-064>068-171600-
...SOUTHWEST COLORADO...
  
CITY           SKY/WX    TMP DP  RH WIND       PRES   REMARKS
DURANGO        FAIR      44  29  55 CALM      29.95R                  
CORTEZ         FAIR      49  36  61 VRB3      29.97S                  
PAGOSA SPRINGS FAIR      45  30  57 NW6       29.95F                  
TELLURIDE      FAIR      34  30  86 CALM      30.06S                  
WOLF CREEK PAS CLOUDY    27  19  74 N14       30.13S WCI  15          
$$

COZ009-010-012-014-032>034-037-058>063-171600-
...CENTRAL COLORADO...
  
CITY           SKY/WX    TMP DP  RH WIND       PRES   REMARKS
ASPEN          PTSUNNY   40  32  73 VRB3      30.03S                  
BUENA VISTA    FAIR      47  25  41 NW16      30.00F                  
COPPER MTN     FLURRIES  28  25  86 CALM      30.12S                  
BERTHOUD PASS  CLOUDY    21  12  68 N18G26    30.11S WCI   6          
COTTONWOOD PAS FAIR      39  21  48 CALM      30.06S                  
GUNNISON       FAIR      40  27  59 CALM      30.05R                  
GRANBY         RAIN      35  33  91 CALM      30.07R                  
KREMMLING      CLOUDY    37  34  87 S6        30.06S                  
LEADVILLE      FAIR      36  25  64 N3        30.06R                  
MONARCH PASS   FAIR      28  18  64 N7        30.20S WCI  21          
SALIDA         FAIR      42  24  49 CALM      30.09S                  
SUNLIGHT       SNOW      28  27  93 NW3       30.15R VSB<1/4          
WILKERSON PASS FAIR      32  19  59 N3        30.12S                  
$$

COZ069>075-171600-
...SAN LUIS VALLEY/SANGRE DE CRISTO MOUNTAINS...
  
CITY           SKY/WX    TMP DP  RH WIND       PRES   REMARKS
ALAMOSA        CLOUDY    42  22  44 E10       29.98R                  
DEL NORTE      FAIR      42  24  49 W9        30.00S                  
LA VETA PASS   NOT AVBL                                               
SAGUACHE       FAIR      43  27  52 CALM      30.00R                  
$$

COZ035-036-038>040-171600-
...NORTHERN COLORADO FRONT RANGE...
  
CITY           SKY/WX    TMP DP  RH WIND       PRES   REMARKS
DENVER INTL AP PTSUNNY   46  40  79 N17       29.96R                  
AURORA         NOT AVBL                                               
FRONT RANGE AP PTSUNNY   48  41  76 NE14      29.97R                  
ERIE MUNI ARPT PTSUNNY   48  40  72 NE9       30.03R                  
BOULDER MUN AP CLOUDY    48  37  66 E7        29.98R                  
CENTENNIAL     PTSUNNY   50  39  66 NE12G23   29.97R                  
BROOMFIELD     NOT AVBL                                               
FORT COLLINS   LGT RAIN  50  41  71 N13       29.97R                  
LONGMONT       CLOUDY    51  40  66 NE3       29.99S                  
$$

COZ041-046-047-076>085-087-088-171600-
...PIKES PEAK/PALMER DIVIDE AND SOUTHERN FOOTHILLS...
  
CITY           SKY/WX    TMP DP  RH WIND       PRES   REMARKS
COLO. SPRINGS  PTSUNNY   57  31  37 NW7       29.93S                  
A. F. ACADEMY  FAIR      54  29  37 NE7       29.91F                  
SCHRIEVER AFB  NOT AVBL                                               
CHEYENNE MTN   FAIR      53  27  35 NE5       29.90S                  
ELLICOTT         N/A    N/A N/A N/A N26G32    29.92R                  
FALCON         NOT AVBL                                               
FORT CARSON    FAIR      57  32  39 S6        29.93R                  
LIMON          FAIR      49  39  68 N29G39    29.93R                  
MONUMENT HILL  FAIR      43  34  70 N16G25    30.00R                  
CANON CITY     FAIR      57  28  33 S7        29.91S                  
WALSENBURG     NOT AVBL                                               
TRINIDAD       FAIR      55  39  54 N6        29.95R                  
$$

COZ042>045-048>051-090-091-171600-
...NORTHEAST COLORADO...
  
CITY           SKY/WX    TMP DP  RH WIND       PRES   REMARKS
GREELEY ARPT   FAIR      51  39  63 N22G31    29.95S                  
AKRON          FAIR      48  38  68 N31G45    29.92                   
BURLINGTON     FAIR      55  42  61 N25G35    29.87R                  
WRAY           FAIR      52  41  66 NW21G31   29.88R                  
YUMA           NOT AVBL                                               
STERLING       FAIR      50  39  66 N23       29.91F                  
HOLYOKE        FAIR      54  43  66 N28       29.88R                  
FORT MORGAN      N/A     50  36  59 N23G31    29.95R                  
$$

COZ086-089-092>099-171600-
...SOUTHEAST COLORADO...
  
CITY           SKY/WX    TMP DP  RH WIND       PRES   REMARKS
PUEBLO         FAIR      59  36  42 E7        29.91R                  
LA JUNTA       FAIR      59  39  47 N10       29.90R                  
LAMAR          FAIR      59  42  53 N17G29    29.84R                  
SPRINGFIELD      N/A     60  42  51 N25G36    29.85R                  
$$